Stations météo

réclame
Mon MeteoGroup
Blois, France (7245): Température de l'air & dewpoint: 11.08.2018 13:00:00 - 17.08.2018 13:00:00 (CEST)Blois, France (7245): Température de l'air 5cm: 11.08.2018 13:00:00 - 17.08.2018 13:00:00 (CEST)Blois, France (7245): Température de l'air -20cm & Température de l'air -100cm: 11.08.2018 13:00:00 - 17.08.2018 13:00:00 (CEST)Blois, France (7245): Vitesse du vent & gusts: 11.08.2018 13:00:00 - 17.08.2018 13:00:00 (CEST)Blois, France (7245): Direction du vent: 11.08.2018 13:00:00 - 17.08.2018 13:00:00 (CEST)Blois, France (7245): reduced air pressure: 11.08.2018 13:00:00 - 17.08.2018 13:00:00 (CEST)Blois, France (7245): visibility: 11.08.2018 13:00:00 - 17.08.2018 13:00:00 (CEST)Blois, France (7245): Ensoleillement: 11.08.2018 13:00:00 - 17.08.2018 13:00:00 (CEST)Blois, France (7245): Quantités de précipitations: 11.08.2018 13:00:00 - 17.08.2018 13:00:00 (CEST)
Date & Time tt [°C] td [°C] tt 5cm [°C] tt -20cm [°C] tt -100cm [°C] ff [km/h] ff [knt] fx [km/h] fx [knt] dd ppp [hPa] vv [km] sd [min] rr [mm]
17.08.2018 13:00:00 22,0 9,8 23,2 22,8 20,6 9 5 26 14 N 1021,3 20 38 0,0
17.08.2018 12:00:00 19,9 11,6 21,7 22,8 20,6 10 5 22 12 N 1021,3 20 25 0,0
17.08.2018 11:00:00 18,4 12,8 18,9 22,9 20,6 9 5 18 10 NNW 1021,2 20 0 0,0
17.08.2018 10:00:00 16,9 13,8 17,1 23,0 20,6 10 5 17 9 NNW 1020,6 20 0 0,0
17.08.2018 09:00:00 16,2 14,4 15,4 23,2 20,6 10 5 22 12 WNW 1020,2 20 0 0,0
17.08.2018 08:00:00 15,7 13,4 15,5 23,3 20,6 15 8 26 14 NNW 1019,6 8 0 0,0
17.08.2018 07:00:00 16,9 12,4 16,8 23,5 20,6 14 7 27 14 N 1018,9 20 0 0,0
17.08.2018 06:00:00 17,0 13,9 17,0 23,6 20,6 13 7 29 16 NNW 1017,8 20 0 0,0
17.08.2018 05:00:00 17,5 14,0 17,1 23,8 20,6 18 10 30 16 NW 1017,4 20 0 0,0
17.08.2018 04:00:00 18,1 13,8 17,7 23,9 20,6 13 7 26 14 NW 1017,3 20 0 0,0
17.08.2018 03:00:00 19,0 14,0 18,7 24,1 20,7 15 8 24 13 NNW 1016,8 20 0 0,0
17.08.2018 02:00:00 19,3 14,1 18,7 24,2 20,7 10 6 24 13 NNW 1016,4 20 0 0,0
17.08.2018 01:00:00 19,6 14,6 19,2 24,4 20,7 13 7 39 21 N 1016,3 20 0 0,0
17.08.2018 00:00:00 20,5 14,8 20,0 24,4 20,6 18 10 39 21 N 1015,8 20 0 0,0
16.08.2018 23:00:00 22,7 15,3 21,7 24,5 20,7 16 9 27 15 NNW 1014,7 20 0 0,0
16.08.2018 22:00:00 23,5 15,5 22,5 24,5 20,7 16 9 35 19 NW 1013,8 20 0 0,0
16.08.2018 21:00:00 25,3 13,2 24,5 24,4 20,7 14 8 24 13 NW 1012,8 20 2 0,0
16.08.2018 20:00:00 27,4 11,8 27,3 24,2 20,6 21 11 29 16 WNW 1012,3 20 38 0,0
16.08.2018 19:00:00 29,8 12,7 33,3 23,9 20,6 16 9 27 15 WNW 1012,3 20 60 0,0
16.08.2018 18:00:00 30,8 12,7 35,9 23,5 20,7 15 8 29 16 NW 1012,6 20 60 0,0
16.08.2018 17:00:00 30,8 11,7 38,0 23,1 20,6 13 7 24 13 W 1012,9 20 60 0,0
16.08.2018 16:00:00 30,7 12,1 38,2 22,7 20,7 12 7 26 14 SW 1013,4 20 60 0,0
16.08.2018 15:00:00 30,2 12,1 37,8 22,3 20,7 9 5 22 12 W 1013,8 20 60 0,0
16.08.2018 14:00:00 29,1 12,5 36,5 21,9 20,7 6 4 18 10 SSW 1014,3 20 60 0,0
16.08.2018 13:00:00 27,5 12,7 36,2 21,6 20,7 11 6 22 12 SW 1015,0 20 60 0,0
16.08.2018 12:00:00 26,8 13,9 33,1 21,5 20,7 5 3 16 9 SW 1015,6 20 60 0,0
16.08.2018 11:00:00 25,2 14,3 29,1 21,5 20,7 6 3 12 7 SE 1015,9 16 60 0,0
16.08.2018 10:00:00 21,8 14,4 19,5 21,6 20,7 4 2 13 7 ESE 1016,4 20 60 0,0
16.08.2018 09:00:00 18,3 13,8 15,7 21,7 20,7 8 5 13 7 E 1016,8 20 60 0,0
16.08.2018 08:00:00 14,2 11,7 9,3 21,9 20,7 5 3 8 5 ENE 1017,1 20 31 0,0
16.08.2018 07:00:00 11,1 9,5 9,1 22,2 20,7 3 1 6 3 ENE 1017,6 20 0 0,0
16.08.2018 06:00:00 11,2 9,3 9,4 22,4 20,7 0 0 6 4 N 1017,6 20 0 0,0
16.08.2018 05:00:00 12,6 11,3 9,9 22,6 20,7 2 1 5 3 ENE 1017,9 20 0 0,0
16.08.2018 04:00:00 13,6 12,0 10,6 22,8 20,7 3 1 8 5 NNE 1018,3 20 0 0,0
16.08.2018 03:00:00 13,6 10,9 11,0 23,0 20,7 0 0 5 3 N 1018,7 20 0 0,0
16.08.2018 02:00:00 13,4 9,8 11,4 23,2 20,7 0 0 6 4 N 1019,1 20 0 0,0
16.08.2018 01:00:00 15,1 9,9 12,8 23,4 20,7 3 2 9 5 NNE 1019,2 20 0 0,0
16.08.2018 00:00:00 17,8 13,1 15,4 23,5 20,7 8 4 10 5 N 1019,1 20 0 0,0
15.08.2018 23:00:00 18,8 13,0 15,9 23,6 20,7 6 4 9 5 NNE 1019,1 20 0 0,0
15.08.2018 22:00:00 19,7 13,2 16,6 23,5 20,7 5 3 6 3 N 1019,1 20 0 0,0
15.08.2018 21:00:00 22,5 13,3 19,6 23,4 20,7 4 2 10 5 N 1018,8 20 11 0,0
15.08.2018 20:00:00 25,6 13,1 25,5 23,2 20,7 6 3 16 9 N 1018,7 20 60 0,0
15.08.2018 19:00:00 26,3 13,1 31,4 23,0 20,7 8 5 20 11 NW 1019,0 20 60 0,0
15.08.2018 18:00:00 26,4 12,8 33,9 22,6 20,7 7 4 17 9 NW 1019,5 20 60 0,0
15.08.2018 17:00:00 26,0 12,4 33,2 22,2 20,7 9 5 21 12 WNW 1020,0 20 60 0,0
15.08.2018 16:00:00 25,0 12,9 32,4 21,9 20,7 9 5 21 11 W 1020,5 20 60 0,0
15.08.2018 15:00:00 23,8 13,1 31,1 21,6 20,7 10 5 22 12 NNW 1021,1 20 60 0,0
15.08.2018 14:00:00 22,4 13,5 26,1 21,4 20,7 12 7 21 12 N 1021,7 20 45 0,0
15.08.2018 13:00:00 20,8 13,0 24,0 21,4 20,7 8 4 22 12 NW 1022,3 20 5 0,0
15.08.2018 12:00:00 20,1 13,5 22,5 21,3 20,7 8 5 18 10 WNW 1022,5 20 0 0,0
15.08.2018 11:00:00 19,6 13,5 21,4 21,4 20,8 11 6 17 9 WNW 1022,6 20 0 0,0
15.08.2018 10:00:00 18,7 13,8 18,7 21,4 20,7 6 4 13 7 N 1022,4 20 0 0,0
15.08.2018 09:00:00 16,9 14,0 15,6 21,6 20,7 9 5 12 7 NW 1022,4 20 0 0,0
15.08.2018 08:00:00 14,4 13,3 10,0 21,7 20,7 7 4 10 6 WNW 1022,2 20 11 0,0
15.08.2018 07:00:00 12,1 11,2 9,5 22,0 20,8 3 1 10 5 WNW 1021,9 14 0 0,0
15.08.2018 06:00:00 11,9 10,6 9,9 22,2 20,7 7 4 10 5 WNW 1021,7 20 0 0,0
15.08.2018 05:00:00 12,1 10,5 10,2 22,4 20,7 6 4 9 5 WNW 1021,7 20 0 0,0
15.08.2018 04:00:00 12,6 11,0 11,1 22,6 20,8 5 3 11 6 W 1022,0 20 0 0,0
15.08.2018 03:00:00 13,6 11,5 11,4 22,8 20,8 8 5 10 5 WNW 1021,9 20 0 0,0
15.08.2018 02:00:00 14,4 11,7 12,0 23,0 20,8 5 3 6 3 WSW 1022,2 20 0 0,0
15.08.2018 01:00:00 15,1 12,0 12,3 23,1 20,8 3 2 5 3 SW 1022,1 20 0 0,0
15.08.2018 00:00:00 15,2 11,0 12,9 23,2 20,8 0 0 5 3 N 1021,8 20 0 0,0
14.08.2018 23:00:00 16,0 11,2 14,4 23,3 20,8 4 2 15 8 WNW 1021,6 20 0 0,0
14.08.2018 22:00:00 19,4 13,3 17,5 23,3 20,8 9 5 18 10 NW 1021,1 20 0 0,0
14.08.2018 21:00:00 21,5 13,4 21,2 23,3 20,8 15 8 24 13 W 1020,2 20 18 0,0
14.08.2018 20:00:00 22,3 13,1 22,6 23,1 20,8 21 11 35 19 WNW 1019,8 20 32 0,0
14.08.2018 19:00:00 24,4 13,3 24,8 22,9 20,8 26 14 37 20 WNW 1019,5 20 28 0,0
14.08.2018 18:00:00 25,1 12,0 26,1 22,7 20,8 23 12 33 18 W 1019,5 20 50 0,0
14.08.2018 17:00:00 24,3 12,3 25,7 22,5 20,8 23 12 37 20 WNW 1019,6 20 41 0,0
14.08.2018 16:00:00 24,7 12,6 25,1 22,2 20,8 24 13 38 20 WNW 1019,5 20 20 0,0
14.08.2018 15:00:00 26,2 12,6 26,1 22,0 20,8 19 11 36 19 WNW 1019,2 20 22 0,0
14.08.2018 14:00:00 24,7 11,6 24,9 21,7 20,8 15 8 32 17 WNW 1019,2 20 37 0,0
14.08.2018 13:00:00 22,4 12,6 24,9 21,5 20,8 14 8 26 14 W 1019,3 20 16 0,0
14.08.2018 12:00:00 21,7 13,1 25,3 21,4 20,8 10 5 23 12 W 1019,3 20 47 0,0
14.08.2018 11:00:00 20,8 13,7 25,0 21,4 20,8 13 7 23 12 WNW 1019,4 20 60 0,0
14.08.2018 10:00:00 18,9 14,2 18,0 21,5 20,8 13 7 22 12 WNW 1019,0 20 60 0,0
14.08.2018 09:00:00 16,5 13,8 15,4 21,7 20,8 10 6 16 9 W 1018,5 20 56 0,0
14.08.2018 08:00:00 14,2 12,9 11,7 21,8 20,8 7 4 10 6 W 1018,2 20 43 0,0
14.08.2018 07:00:00 12,5 11,4 11,3 22,0 20,8 8 5 14 7 WNW 1017,5 20 0 0,0
14.08.2018 06:00:00 12,5 11,4 10,2 22,2 20,8 8 5 10 6 WNW 1017,0 20 0 0,0
14.08.2018 05:00:00 13,0 11,2 11,2 22,4 20,8 5 3 14 8 WNW 1016,7 20 0 0,0
14.08.2018 04:00:00 14,1 11,8 12,5 22,5 20,8 9 5 13 7 WNW 1016,1 20 0 0,0
14.08.2018 03:00:00 16,5 12,6 14,2 22,7 20,8 10 6 14 8 NW 1015,3 20 0 0,0
14.08.2018 02:00:00 16,9 13,2 14,0 22,9 20,8 9 5 12 6 NW 1015,3 20 0 0,0
14.08.2018 01:00:00 16,8 13,7 15,5 23,0 20,8 4 2 11 6 WNW 1014,8 20 0 0,0
14.08.2018 00:00:00 16,9 13,6 16,1 23,1 20,8 9 5 17 9 W 1014,2 20 0 0,0
13.08.2018 23:00:00 20,5 14,6 20,1 23,1 20,8 16 8 27 14 W 1013,5 20 0 0,0
13.08.2018 22:00:00 21,2 14,6 20,1 23,1 20,8 16 9 22 12 W 1012,9 20 0 0,0
13.08.2018 21:00:00 21,8 14,4 21,4 23,1 20,8 18 10 29 16 W 1012,0 20 23 0,0
13.08.2018 20:00:00 23,3 14,0 23,9 23,0 20,8 17 9 29 15 W 1011,3 20 23 0,0
13.08.2018 19:00:00 24,4 13,3 25,5 22,9 20,8 18 10 29 15 W 1011,0 20 29 0,0
13.08.2018 18:00:00 23,6 14,3 24,8 22,8 20,8 20 11 31 17 WSW 1011,1 20 26 0,0
13.08.2018 17:00:00 22,3 15,4 19,5 22,7 20,9 18 10 29 16 W 1011,3 20 0 0,2
13.08.2018 16:00:00 23,8 14,2 26,1 22,5 20,8 15 8 39 21 W 1011,3 20 9 0,0
13.08.2018 15:00:00 24,2 14,0 24,8 22,4 20,9 24 13 37 20 WSW 1011,5 20 10 0,0
13.08.2018 14:00:00 22,1 14,5 21,6 22,3 20,9 20 11 38 21 W 1011,5 20 9 0,0
13.08.2018 13:00:00 23,6 13,7 24,4 22,2 20,9 25 13 38 21 WSW 1011,2 20 39 0,0
13.08.2018 12:00:00 21,9 14,5 20,5 22,3 20,9 25 14 36 20 W 1011,5 20 16 0,0
13.08.2018 11:00:00 20,1 15,3 19,0 22,3 20,9 23 13 37 20 W 1011,5 20 1 0,0
13.08.2018 10:00:00 18,6 15,7 17,4 22,4 20,9 22 12 40 22 WSW 1011,2 20 1 0,0
13.08.2018 09:00:00 18,6 14,7 18,2 22,5 20,9 22 12 34 18 SW 1010,8 20 0 0,0
13.08.2018 08:00:00 18,3 14,4 17,7 22,6 20,9 22 12 30 16 SW 1010,7 20 5 0,0
13.08.2018 07:00:00 18,1 14,2 17,9 22,8 20,9 21 12 31 17 SW 1010,5 20 0 0,0
13.08.2018 06:00:00 18,1 14,4 17,8 22,9 20,9 20 11 34 18 SW 1010,6 20 0 0,0
13.08.2018 05:00:00 18,0 14,3 17,5 23,1 20,9 24 13 35 19 SW 1010,5 20 0 0,0
13.08.2018 04:00:00 18,1 13,6 17,7 23,2 20,9 23 12 39 21 W 1010,4 20 0 0,0
13.08.2018 03:00:00 19,6 14,0 19,2 23,3 20,9 29 15 41 22 W 1009,9 20 0 0,0
13.08.2018 02:00:00 20,7 15,5 19,6 23,4 20,9 27 14 41 22 WSW 1009,5 20 0 0,0
13.08.2018 01:00:00 20,5 14,8 19,6 23,6 21,0 11 6 18 10 SSW 1009,4 20 0 0,0
13.08.2018 00:00:00 20,7 14,3 19,4 23,6 20,9 10 5 14 8 S 1009,1 20 0 0,0
12.08.2018 23:00:00 21,5 14,4 20,9 23,6 20,9 5 3 16 9 SW 1009,3 20 0 0,0
12.08.2018 22:00:00 22,9 14,2 22,6 23,6 20,9 15 8 31 17 WNW 1010,0 20 0 0,0
12.08.2018 21:00:00 24,3 14,7 24,2 23,5 21,0 18 10 42 23 WNW 1009,4 20 0 0,0
12.08.2018 20:00:00 27,8 13,7 28,0 23,4 21,0 22 12 30 16 W 1008,7 20 0 0,0
12.08.2018 19:00:00 30,0 12,9 31,4 23,1 21,0 21 11 35 19 WSW 1008,8 20 35 0,0
12.08.2018 18:00:00 30,7 12,1 33,2 22,8 21,0 24 13 40 22 SW 1009,1 20 34 0,0
12.08.2018 17:00:00 30,4 11,9 32,9 22,4 21,0 23 12 37 20 SSW 1010,0 20 21 0,0
12.08.2018 16:00:00 30,9 11,8 36,8 21,9 21,0 25 14 38 21 SW 1010,8 20 53 0,0
12.08.2018 15:00:00 30,4 10,9 34,9 21,6 21,0 17 9 42 23 SW 1011,6 20 60 0,0
12.08.2018 14:00:00 29,1 10,7 34,3 21,2 21,0 18 10 46 25 SSW 1012,3 20 51 0,0
12.08.2018 13:00:00 28,0 10,7 35,0 20,9 21,0 15 8 30 16 S 1012,9 20 60 0,0
12.08.2018 12:00:00 26,5 11,0 30,8 20,8 21,0 16 8 26 14 SSE 1013,6 20 58 0,0
12.08.2018 11:00:00 24,3 11,3 26,5 20,8 21,0 12 6 21 11 SSE 1014,2 20 60 0,0
12.08.2018 10:00:00 21,5 11,2 20,0 20,9 21,0 14 8 19 10 ESE 1014,8 20 57 0,0
12.08.2018 09:00:00 18,3 11,1 16,7 21,0 21,0 8 4 11 6 ESE 1015,7 20 60 0,0
12.08.2018 08:00:00 15,3 10,5 10,3 21,2 21,1 6 4 9 5 E 1016,0 20 49 0,0
12.08.2018 07:00:00 12,2 9,8 9,5 21,4 21,1 4 2 7 4 ENE 1016,8 20 0 0,0
12.08.2018 06:00:00 12,8 9,4 10,2 21,6 21,1 5 3 11 6 E 1016,9 20 0 0,0
12.08.2018 05:00:00 12,3 9,3 10,5 21,8 21,1 10 5 12 7 E 1017,4 20 0 0,0
12.08.2018 04:00:00 13,5 9,9 10,7 22,0 21,1 7 4 10 6 E 1018,3 20 0 0,0
12.08.2018 03:00:00 14,2 10,2 10,5 22,2 21,1 5 3 9 5 E 1018,8 20 0 0,0
12.08.2018 02:00:00 15,0 10,0 11,5 22,3 21,1 8 4 9 5 E 1019,5 20 0 0,0
12.08.2018 01:00:00 15,9 10,4 12,3 22,5 21,1 6 3 9 5 E 1019,8 20 0 0,0
12.08.2018 00:00:00 17,0 10,8 13,2 22,6 21,1 7 4 9 5 E 1020,3 20 0 0,0
11.08.2018 23:00:00 17,9 11,5 13,9 22,7 21,2 6 4 8 5 E 1020,8 20 0 0,0
11.08.2018 22:00:00 18,3 11,6 15,2 22,7 21,1 3 2 6 3 E 1021,3 19 0 0,0
11.08.2018 21:00:00 21,4 11,4 20,4 22,7 21,2 3 1 5 3 SE 1021,1 20 37 0,0
11.08.2018 20:00:00 23,6 10,6 23,8 22,5 21,2 2 1 9 5 SSE 1021,2 20 0 0,0
11.08.2018 19:00:00 24,2 10,5 26,2 22,3 21,2 8 4 11 6 S 1021,6 20 0 0,0
11.08.2018 18:00:00 25,0 10,1 28,5 22,1 21,2 3 2 12 7 S 1021,9 20 28 0,0
11.08.2018 17:00:00 24,5 10,0 28,8 21,7 21,2 5 3 13 7 SSW 1022,5 20 7 0,0
11.08.2018 16:00:00 24,6 10,5 28,5 21,4 21,2 2 1 18 10 SSE 1023,0 20 14 0,0
11.08.2018 15:00:00 24,2 10,5 28,2 21,1 21,2 7 4 20 11 SE 1023,8 20 25 0,0
11.08.2018 14:00:00 24,2 11,2 26,8 20,8 21,2 7 4 18 10 SE 1024,2 20 28 0,0
11.08.2018 13:00:00 22,5 10,9 26,1 20,5 21,2 6 3 14 8 WSW 1024,6 20 37 0,0

tt = Température de l'air
td = dewpoint
tt 5cm = Température de l'air 5cm
tt -20cm = Température de l'air -20cm
tt -100cm = Température de l'air -100cm
ff = Vitesse du vent
fx = gusts
dd = Direction du vent
ppp = reduced air pressure
vv = visibility
sd = Ensoleillement
rr = Quantités de précipitations

stations d'obs. à proximité